Tracking 31027 objects as of 19-Jul-2025
HD Live streaming from Space Station
objects crossing your sky now

COSMOS 886 DEB *

Track COSMOS 886 DEB * now!
10-day predictions


NORAD ID: 9954
Int'l Code: 1976-126AU
Perigee: 568.1 km
Apogee: 1,941.7 km
Inclination: 65.7 °
Period: 110.5 minutes
Semi major axis: 7625 km
RCS: 0.0138 m2 (small)
Launch date: December 27, 1976
Source: Commonwealth of Independent States (former USSR) (CIS)
Launch site: TYURATAM MISSILE AND SPACE COMPLEX (TTMTR)

Note: This is SATELLITE DEBRIS
Your satellite tracking list
SUPERVIEW-1 03
Track 1 satellite(s)




NASA's NSSDC Master Catalog

Two Line Element Set (TLE):
1 09954U 76126AU  25199.28342279 -.00000194  00000-0 -44133-4 0  9997
2 09954  65.6981 155.8772 0900576 181.7308 178.0541 13.03661548583553
Source of the keplerian elements: AFSPC